This demonstration page uses our WeatherBlox Daily Observations layout. Learn more.

Hourly Observations for June 3, 2019

Temp ( °F °C ) Dew Point ( °F °C ) Humidity (%) Winds ( mph kmh ) Pressure ( in mb ) Visibility ( mi km ) Precip ( " mm )
12:15 am 00:15 Clear 67 19.3 55 13 67 67 SE 13 20 29.88 1012 10 16.09344 0 0
12:35 am 00:35 Clear 66 19 55 12.8 67 67 SE 14 22 29.91 1013 10 16.09344 0 0
12:55 am 00:55 Mostly Cloudy 66 18.8 55 12.7 68 68 SE 13 20 29.91 1013 10 16.09344 0 0
1:15 am 01:15 Cloudy 65 18.6 55 12.7 69 69 SE 13 20 29.88 1012 10 16.09344 0 0
1:35 am 01:35 Partly Cloudy 65 18.5 55 12.8 70 70 SE 13 20 29.88 1012 10 16.09344 0 0
1:55 am 01:55 Clear 65 18.2 56 13.1 72 72 SE 13 20 29.88 1012 10 16.09344 0 0
2:15 am 02:15 Clear 65 18.1 56 13.2 73 73 SSE 12 19 29.91 1013 10 16.09344 0 0
2:35 am 02:35 Partly Cloudy 64 18 56 13.3 74 74 SSE 10 17 29.91 1013 10 16.09344 0 0
2:55 am 02:55 Partly Cloudy 64 18 57 13.7 76 76 SSE 9 15 29.91 1013 10 16.09344 0 0
3:15 am 03:15 Partly Cloudy 64 17.8 57 13.8 78 78 S 7 11 29.91 1013 10 16.09344 0 0
3:35 am 03:35 Mostly Cloudy 64 18 58 14.3 79 79 S 7 11 29.91 1013 10 16.09344 0 0
3:55 am 03:55 Cloudy 65 18.1 58 14.5 80 80 NW 18 30 29.91 1013 10 16.09344 0 0
4:15 am 04:15 Cloudy with Light Rain 61 16.3 59 14.9 91 91 N 18 30 29.91 1013 10 16.09344 0 0
4:35 am 04:35 Cloudy with Heavy Thunderstorms 60 15.5 59 15.2 98 98 N 14 22 29.94 1014 2.5 4.02336 0.25 6.35
4:55 am 04:55 Cloudy with Heavy Thunderstorms 59 15.1 59 15.1 100 100 NNE 10 17 29.94 1014 4 6.437376 0.5 12.7
5:15 am 05:15 Cloudy 60 15.4 60 15.4 100 100 E 8 13 29.88 1012 1.5 2.414016 0.35 8.89
5:35 am 05:35 Cloudy with Light Thunderstorms 60 15.7 60 15.7 100 100 NE 6 9 29.91 1013 10 16.09344 0.37 9.398
5:55 am 05:55 Cloudy with Nearby Thunderstorms 61 16 61 16 100 100 E 7 11 29.91 1013 10 16.09344 0.37 9.398
6:15 am 06:15 Cloudy 60 15.7 60 15.7 100 100 ESE 9 15 29.88 1012 10 16.09344 0 0
6:35 am 06:35 Cloudy 61 16 61 16 100 100 ESE 9 15 29.88 1012 10 16.09344 0 0
6:55 am 06:55 Cloudy 60 15.7 60 15.7 100 100 ESE 9 15 29.91 1013 10 16.09344 0 0
7:15 am 07:15 Cloudy 60 15.8 60 15.8 100 100 ENE 6 9 29.91 1013 10 16.09344 0 0
7:35 am 07:35 Cloudy 61 16 61 16 100 100 E 6 9 29.91 1013 10 16.09344 0 0
7:55 am 07:55 Cloudy 62 16.5 62 16.5 100 100 ESE 8 13 29.91 1013 10 16.09344 0 0
8:15 am 08:15 Cloudy 62 16.7 62 16.7 100 100 ESE 7 11 29.91 1013 10 16.09344 0 0
8:35 am 08:35 Cloudy 63 17.2 63 17.2 100 100 ESE 9 15 29.91 1013 10 16.09344 0 0
8:55 am 08:55 Cloudy 64 17.6 64 17.6 100 100 SE 10 17 29.91 1013 10 16.09344 0 0
9:15 am 09:15 Cloudy 65 18.1 64 17.9 99 99 ESE 12 19 29.91 1013 10 16.09344 0 0
9:35 am 09:35 Cloudy 65 18.6 65 18.1 97 97 SE 12 19 29.91 1013 10 16.09344 0 0
9:55 am 09:55 Cloudy 67 19.2 65 18.5 96 96 SE 12 19 29.88 1012 10 16.09344 0 0
10:15 am 10:15 Cloudy 67 19.6 66 18.8 95 95 ESE 14 22 29.88 1012 10 16.09344 0 0
10:35 am 10:35 Cloudy 68 20 66 18.9 93 93 SE 10 17 29.88 1012 10 16.09344 0 0
10:55 am 10:55 Cloudy 70 20.9 66 19.1 90 90 SE 13 20 29.88 1012 10 16.09344 0 0
11:15 am 11:15 Cloudy 71 21.5 67 19.6 89 89 SE 12 19 29.88 1012 10 16.09344 0 0
11:35 am 11:35 Cloudy 72 22 68 20 88 88 SE 10 17 29.88 1012 10 16.09344 0 0
11:55 am 11:55 Mostly Cloudy 74 23.1 68 20.2 84 84 ESE 9 15 29.83 1010 10 16.09344 0 0
12:15 pm 12:15 Mostly Cloudy 76 24.2 67 19.3 74 74 SSE 9 15 29.83 1010 10 16.09344 0 0
12:35 pm 12:35 Partly Cloudy 77 24.9 66 19.1 70 70 S 12 19 29.83 1010 10 16.09344 0 0
12:55 pm 12:55 Partly Cloudy 78 25.5 67 19.4 69 69 SSE 8 13 29.83 1010 10 16.09344 0 0
1:15 pm 13:15 Mostly Cloudy 78 25.7 66 18.7 65 65 SSE 10 17 29.83 1010 10 16.09344 0 0
1:35 pm 13:35 Mostly Cloudy 79 26 65 18.6 64 64 SSE 12 19 29.83 1010 10 16.09344 0 0
1:55 pm 13:55 Mostly Cloudy 79 26.3 67 19.2 65 65 S 10 17 29.77 1008 10 16.09344 0 0
2:15 pm 14:15 Mostly Cloudy 80 26.6 66 19.1 64 64 S 12 19 29.77 1008 10 16.09344 0 0
2:35 pm 14:35 Mostly Cloudy 81 27 65 18.4 59 59 SSE 12 19 29.77 1008 10 16.09344 0 0
2:55 pm 14:55 Partly Cloudy 82 27.6 65 18.5 58 58 SSE 8 13 29.77 1008 10 16.09344 0 0
3:15 pm 15:15 Partly Cloudy 82 28 65 18.6 57 57 SSE 13 20 29.77 1008 10 16.09344 0 0
3:35 pm 15:35 Partly Cloudy 83 28.1 65 18.2 55 55 SSE 13 20 29.74 1007 10 16.09344 0 0
3:55 pm 15:55 Partly Cloudy 82 28 64 18 55 55 S 10 17 29.74 1007 10 16.09344 0 0
4:15 pm 16:15 Mostly Cloudy 83 28.5 65 18.1 53 53 S 14 22 29.74 1007 10 16.09344 0 0
4:35 pm 16:35 Mostly Cloudy 84 29 63 17.2 49 49 S 13 20 29.68 1005 10 16.09344 0 0
4:55 pm 16:55 Partly Cloudy 84 29 62 16.5 47 47 S 15 24 29.68 1005 10 16.09344 0 0
5:15 pm 17:15 Partly Cloudy 84 29.1 62 16.8 47 47 SSE 13 20 29.68 1005 10 16.09344 0 0
5:35 pm 17:35 Sunny 84 29.1 62 16.7 47 47 S 13 20 29.68 1005 10 16.09344 0 0
5:55 pm 17:55 Sunny 84 29.1 63 17 48 48 S 15 24 29.68 1005 10 16.09344 0 0
6:15 pm 18:15 Sunny 84 28.7 63 17.1 49 49 S 13 20 29.65 1004 10 16.09344 0 0
6:35 pm 18:35 Sunny 83 28.5 64 17.9 53 53 S 10 17 29.68 1005 10 16.09344 0 0
6:55 pm 18:55 Sunny 82 27.8 64 17.8 55 55 S 10 17 29.68 1005 10 16.09344 0 0
7:15 pm 19:15 Sunny 81 27.4 64 18 57 57 S 10 17 29.68 1005 10 16.09344 0 0
7:35 pm 19:35 Sunny 81 27 64 17.9 58 58 SSE 10 17 29.68 1005 10 16.09344 0 0
7:55 pm 19:55 Sunny 79 25.9 65 18.2 63 63 S 9 15 29.68 1005 10 16.09344 0 0
8:15 pm 20:15 Sunny 78 25.5 65 18.6 66 66 SSE 7 11 29.68 1005 10 16.09344 0 0
8:35 pm 20:35 Sunny 76 24.5 66 18.7 70 70 SSE 6 9 29.71 1006 10 16.09344 0 0
8:55 pm 20:55 Sunny 75 24 66 18.7 72 72 SSE 5 7 29.71 1006 10 16.09344 0 0
9:15 pm 21:15 Clear 72 22.4 66 19 81 81 ESE 6 9 29.71 1006 10 16.09344 0 0
9:35 pm 21:35 Clear 73 22.5 66 19 81 81 SSE 6 9 29.74 1007 10 16.09344 0 0
9:55 pm 21:55 Clear 72 22.4 65 18.6 79 79 SSE 6 9 29.77 1008 10 16.09344 0 0
10:15 pm 22:15 Clear 72 22.1 66 19 83 83 SE 7 11 29.77 1008 10 16.09344 0 0
10:35 pm 22:35 Clear 72 22 66 18.8 82 82 SSE 7 11 29.77 1008 10 16.09344 0 0
10:55 pm 22:55 Clear 72 22 66 19 83 83 SE 6 9 29.77 1008 10 16.09344 0 0
11:15 pm 23:15 Mostly Cloudy 72 22.2 67 19.2 83 83 SSE 5 7 29.77 1008 10 16.09344 0 0
11:35 pm 23:35 Cloudy 70 21.3 58 14.7 66 66 W 30 48 29.85 1011 10 16.09344 0 0
11:55 pm 23:55 Mostly Cloudy with Nearby Thunderstorms 66 18.7 60 15.5 82 82 W 21 33 29.83 1010 10 16.09344 0.02 0.508

Powered by AerisWeather